www.pogodaiklimat.ru

Погода и климат >> Архив погоды >> Россия >> Камчатский край >> Большерецк


ПОГОДА в Большерецке

  • Прогноз погоды в Большерецке
  • Монитор погоды в Большерецке
  • Климат города

АРХИВ ПОГОДЫ в Большерецке

Время (UTC), дата Ветер
(напр.,м/с)
 
Видим.   Явления Облачность Т
(С)
Тd
(С)
f
(%)
Тe
(С)
Тes
(С)
Комфортность P
(гПа)
Po
(гПа)
Тmin
(С)
Tmax
(С)
R
(мм)
R24
(мм)
S
(см)
15 8.12 В 4 20 км 10/10 600 м
[Sc]
-10.1 -13.0 79 -17 -17 1010.4 1006.4
18 8.12 В 4 20 км 10/10 600 м
[Sc]
-6.9 -12.2 66 -13 -13 1006.2 1002.4
21 8.12 В 10-19
{19}
2000 м слабый ливневой снег {метель} 10/10 300 м
[Cb cap]
-5.9 -7.5 88 -16 -16 1000.6 996.7 -13.2 0.2 12
00 9.12 В 12-20
{22}
20 км позёмок {ливн. осадки, метель} 9/6 600 м
[Cb cap Ac trans]
-2.6 -7.6 68 -12 -12 993.3 989.6
03 9.12 В 10-16
{20}
20 км позёмок {метель} 9/9 600 м
[Cb cap]
-0.9 -5.4 71 -9 -9 988.9 985.2
06 9.12 ЮВ 5-11
{18}
20 км позёмок {метель} 9/9 600 м
[Sc]
-0.3 -3.9 77 -6 -6 987.5 983.8
09 9.12 В 4
{11}
20 км {метель} 10/10 600 м
[Cb cap]
-1.7 -3.9 85 -8 -8 986.1 982.3 -0.2 0.0
12 9.12 СВ 3 20 км в посл. час ливневой снег {метель} 10/10 600 м
[Cb cap]
-2.6 -3.9 91 -8 -8 983.8 980.1
15 9.12 В 3 20 км слабый ливневой дождь 10/10 600 м
[Cb cap]
-3.8 -4.7 93 -9 -9 982.4 978.7
18 9.12 СВ 4 20 км слабый ливневой снег 10/10 600 м
[Cb cap]
-4.6 -4.8 99 -11 -11 981.4 977.7
21 9.12 В 2 10 км слабый ливневой снег 10/10 600 м
[Cb cap]
-5.2 -5.4 98 -10 -10 981.1 977.4 -5.3 3 12
00 10.12 В 2 4000 м слабый ливневой снег 10/10 600 м
[Cb cap]
-4.1 -4.3 99 -9 -9 981.9 978.2
03 10.12 СВ 1 4000 м слабый ливневой снег 10/10 600 м
[Cb cap]
-2.8 -3.1 98 -5 -5 982.8 979.1
06 10.12 СВ 2 20 км в посл. час ливневой снег 10/10 600 м
[Cb cap]
-4.6 -4.7 99 -9 -9 985.3 981.5
09 10.12 С 2 20 км 10/10 600 м
[Cb cap]
-5.0 -5.1 99 -9 -9 987.9 984.2 -2.8 2
12 10.12 С 2 20 км 10/10 600 м
[Cb cap]
-5.9 -6.0 99 -10 -10 990.4 986.6
15 10.12 В 1 20 км 10/10 600 м
[Cb cap]
-5.2 -5.3 99 -8 -8 992.7 988.9
18 10.12 ЮВ 1 20 км 10/6 600 м
[Cb cap Ac und]
-4.2 -4.3 99 -7 -7 995.8 992.0
21 10.12 В 1 500 м туман ?/? -3.8 -3.8 100 -6 -6 999.5 995.7 -5.9 15
00 11.12 штиль 0 500 м переохл. туман ?/? -2.3 -2.3 100 -4 -4 1003.3 999.5
03 11.12 З 3 20 км {туман} 10/10 300 м
[St]
+0.9 +0.9 100 -4 -4 1006.0 1002.3
06 11.12 СЗ 2 20 км {туман} 10/10 300 м
[St]
+0.5 +0.4 99 -3 -3 1009.9 1006.1
09 11.12 штиль 0 10 км слабый ливневой снег 10/10 300 м
[Cb cap]
-0.1 -0.1 100 -2 -2 1012.3 1008.5 +1.0 0.7
12 11.12 СЗ 1 200 м туман {ливн. осадки} ?/? -1.0 -1.0 100 -3 -3 1014.1 1010.3
15 11.12 В 1 200 м переохл. туман ?/? -2.8 -2.8 100 -5 -5 1015.3 1011.4
18 11.12 СВ 1 200 м переохл. туман ?/? -5.9 -6.0 99 -8 -8 1015.4 1011.5
21 11.12 СВ 3 50 км {туман} 6/0
[Ci fib]
-7.3 -7.4 99 -13 -13 1014.5 1010.6 -9.3 0.0 14
00 12.12 В 8-15
{15}
50 км {туман} 6/3 600 м
[Cu hum Ci]
+1.8 -3.8 66 -5 -5 1011.2 1007.4
03 12.12 В 9-14
{16}
50 км позёмок {метель} 8/4 600 м
[Cu hum Ci]
+2.1 -4.3 63 -5 -5 1008.6 1004.9
06 12.12 В 7-12
{16}
50 км {метель} 9/6 600 м
[Sc Ci]
+0.8 -5.9 61 -6 -6 1006.1 1002.4
09 12.12 В 8-13
{14}
20 км 9/6 600 м
[Sc Ci]
+0.1 -5.6 65 -7 -7 1003.2 999.4 +2.4
12 12.12 СВ 7-13
{14}
20 км 10/10 600 м
[Sc]
-0.2 -5.9 65 -7 -7 999.6 995.9
15 12.12 СВ 6-10
{14}
20 км 10/10 600 м
[Sc]
-1.2 -6.6 67 -8 -8 995.8 992.0
18 12.12 СВ 4-10
{11}
20 км ясно -1.7 -7.1 67 -7 -7 993.4 989.6
21 12.12 СВ 6
{10}
20 км 8/6 600 м
[Sc Ac trans]
-1.1 -7.3 63 -8 -8 992.2 988.4 -2.4 13
00 13.12 СВ 6
{13}
50 км 9/8 600 м
[Sc Ac trans]
-0.5 -9.3 51 -7 -7 992.0 988.3
03 13.12 С 5
{13}
50 км 9/8 600 м
[Sc Ac trans]
-0.5 -9.8 49 -6 -6 991.1 987.4
06 13.12 С 3
{10}
50 км 9/6 600 м
[Sc Ac trans]
-3.7 -10.2 61 -9 -9 991.7 987.9
09 13.12 С 2 20 км 10/0
[Ac und]
-3.8 -9.5 65 -8 -8 992.6 988.9 -0.3
12 13.12 СВ 2 20 км 10/0
[Ac und]
-3.1 -9.0 64 -7 -7 993.6 989.9
15 13.12 С 3 20 км 10/0
[Ac und]
-5.5 -10.5 68 -11 -11 994.1 990.3
18 13.12 СВ 2 20 км 4/0
[Ac lent]
-6.3 -12.3 62 -10 -10 994.6 990.8
21 13.12 СВ 2 50 км 4/4 600 м
[Sc]
-8.5 -13.2 69 -13 -13 995.5 991.6 -8.5 16
00 14.12 СВ 2 50 км 9/9 600 м
[Sc]
-8.0 -13.3 66 -12 -12 996.6 992.8 -9.9
03 14.12 С 5 50 км 8/0
[Ci fib]
-8.4 -12.0 75 -16 -16 996.7 992.8
06 14.12 С 6 50 км 10/5 600 м
[Sc Ci fib]
-10.9 -13.0 84 -20 -20 998.3 994.4
09 14.12 С 6-10
{10}
20 км 4/0
[Ci fib]
-14.6 -17.4 79 -24 -24 999.7 995.7 -6.8
12 14.12 С 8-10
{11}
20 км ясно -15.9 -19.0 77 -27 -27 1001.5 997.5
15 14.12 С 8
{12}
20 км ясно -14.6 -20.5 61 -25 -25 1003.1 999.1
18 14.12 СЗ 3
{12}
20 км ясно -17.8 -22.0 70 -25 -25 1004.8 1000.8
21 14.12 СЗ 3 50 км ясно -17.1 -22.8 61 -24 -24 1005.6 1001.6 -18.2 14
00 15.12 С 2 50 км 3/3 600 м
[Sc]
-13.3 -21.9 48 -18 -17 1005.6 1001.6
03 15.12 штиль 0 50 км 9/4 600 м
[Sc Ac trans]
-12.0 -20.0 51 -12 -12 1005.5 1001.6
06 15.12 В 1 50 км 9/6 600 м
[Sc Ac trans]
-14.9 -19.6 67 -17 -17 1005.4 1001.5
09 15.12 В 1 20 км 10/10 600 м
[Sc]
-14.6 -18.0 75 -17 -17 1006.1 1002.1 -11.9
12 15.12 СВ 1 20 км 10/10 600 м
[Sc]
-14.9 -17.5 80 -17 -17 1006.5 1002.5

 

Местоположение метеостанции Большерецк (Камчатский край, Россия): широта 52.83 долгота 156.30 высота над уровнем моря 30 м.

В архиве по умолчанию представлена погода в Большерецке за последнюю неделю. Архивные данные за месяц целиком и за предыдущие месяцы, начиная с января 2011 года, Вы можете получить, выбрав интересующий диапазон дат из раскрывающегося списка и нажав кнопку "Ввод!".

Внимание! Время в таблицах - всемирное. Для получения местного времени необходимо прибавить поправку, которая в Большерецке равна 12 ч.

Смотрите также архив погоды в соседних городах и на ближайших метеорологических станциях:

Погода в Начиках (Камчатский край, Россия) (99 км)
Погода в Сосновке (Камчатский край, Россия) (137 км)
Погода в Петропавловск-Камч. 2 (Камчатский край, Россия) (150 км)
Погода в Озерной (Камчатский край, Россия) (150 км)
Погода в Петропавловск-Камчатском (Камчатский край, Россия) (155 км)
Погода в Водопадной (Камчатский край, Россия) (161 км)
Погода в Петропавловском Маяке (Камчатский край, Россия) (161 км)
Погода в Соболево (Камчатский край, Россия) (166 км)
Погода в Пущино (Камчатский край, Россия) (188 км)
Погода на Мысе Лопатка (Камчатский край, Россия) (219 км)

Пояснения к столбцам:

Ветер - указаны скорость ветра в м/с - средняя за 10 мин, порывы в срок и между сроками (в фигурных скобках) и направление, откуда дует ветер: С - северный, СВ - северо-восточный, В - восточный, ЮВ - юго-восточный, Ю - южный, ЮЗ - юго-западный, З - западный, СЗ - северо-западный.
Видимость - горизонтальная дальность видимости в метрах или километрах. При видимости от 1 до 10 км при отсутствии осадков обычно наблюдается дымка, при ухудшении видимости до 1 км и менее - туман. В сухую погоду видимость может ухудшаться дымом, пылью или мглою.
Явления - указаны атмосферные явления, наблюдавшиеся в срок или в последний час перед сроком; фигурными скобками обозначены явления, наблюдавшиеся между сроками (за 1-3 часа до срока); квадратными скобками обозначены град или гололедные отложения с указанием их диаметра в мм.
Облачность - указаны через наклонную черту общая и нижняя облачность в баллах и высота нижней границы облаков в метрах; квадратными скобками обозначены формы облаков: Ci - перистые, Cs - перисто-слоистые, Cc - перисто-кучевые, Ac - высококучевые, As - высокослоистые, Sc - слоисто-кучевые, Ns - слоисто-дождевые, Cu - кучевые, Cb - кучево-дождевые. Подробнее классификацию облаков см. в Атласе облаков (PDF).
T - Температура воздуха - температура, измеренная на высоте 2 м над землей.
Td - Температура точки росы - температура, при понижении до которой содержащийся в воздухе водяной пар достигнет насыщения.
f - Относительная влажность воздуха - влажноcть воздуха, измеренная на высоте 2 м над землей.
Te - Эффективная температура - температура, которую ощущает одетый по сезону человек в тени. Характеристика душности погоды. При расчете учитывается влияние влажности воздуха и скорости ветра на теплоощущения человека.
Tes - Эффективная температура на солнце - температура, которую ощущает человек, с поправкой на солнечный нагрев. Характеристика знойности погоды. Зависит от высоты солнца над горизонтом, облачности и скорости ветра. Ночью, в пасмурную погоду, а также при ветре 12 м/с и более поправка равна нулю.
P - Атмосферное давление - приведенное к уровню моря атмосферное давление.
Po - Атмосферное давление - измеренное на уровне метеостанции атмосферное давление.
Tmin - Минимальная температура - минимум температуры воздуха на высоте 2 м над землей.
Tmax - Максимальная температура - максимум температуры воздуха на высоте 2 м над землей.
R - Количество осадков - Количество выпавших осадков за период времени, мм. При наведении курсора мыши на число - период времени, за который выпало указанное количество осадков.
R24 - Количество осадков - Количество выпавших осадков за 24 часа, мм.
S - Снежный покров - Высота снежного покрова, см. При наведении курсора мыши на число - состояние снежного покрова и степень покрытия местности в баллах.